Weather History for LHUD - March, 2013

Change the Weather History Date:

Friday, March 29, 2013

  Actual Average (LRAR) Record (LRAR)
Temperature  
Mean Temperature 40 °F -  
Max Temperature 46 °F 63 °F 69 °F (2003)
Min Temperature 33 °F 42 °F 21 °F (1998)
Degree Days  
Heating Degree Days 26    
Moisture  
Dew Point 37 °F    
Average Humidity 88    
Maximum Humidity 100    
Minimum Humidity 81    
Precipitation  
Precipitation 0.04 in 0.05 in - ()
Sea Level Pressure  
Sea Level Pressure 29.81 in    
Wind  
Wind Speed 14 mph ()    
Max Wind Speed 25 mph    
Max Gust Speed 37 mph    
Visibility 6.2 miles    
Events Rain    
Averages and records for this station are not official NWS values.
T = Trace of Precipitation, MM = Missing Value Source: Averaged Metar Reports

Daily Weather History Graph

Daily Weather History Graph

Search for Another Location

Airport or City:

Trip Planner

Search our weather history database for the weather conditions in past years. The results will help you decide how hot, cold, wet, or windy it might be!

Date:

Astronomy

Mar. 29, 2013 Rise Set
Actual Time 5:25 AM CET 6:04 PM CET
Civil Twilight 4:55 AM CET 6:34 PM CET
Nautical Twilight 4:19 AM CET 7:10 PM CET
Astronomical Twilight 3:41 AM CET 7:48 PM CET
Moon 8:54 PM CET (3/29) 6:12 AM CET (3/29)
Length of Visible Light 13h 39m
Length of Day
12h 39m
Waning Gibbous, 95% of the Moon is Illuminated
Mar 29
Waning Gibbous
Apr 3
Last Quarter
Apr 10
New
Apr 18
First Quarter
Apr 25
Full

Hourly Weather History & Observations

Time (CET) Temp. Windchill Dew Point Humidity Pressure Visibility Wind Dir Wind Speed Gust Speed Precip Events Conditions
12:45 AM 33.8 °F 25.8 °F 30.2 °F 87% 29.98 in - SE 10.4 mph - N/A   Clear
1:00 AM 34 °F - 30 °F 81% 29.99 in 6 mi SE 8.9 mph - -   Partly Cloudy
1:45 AM 33.8 °F 25.8 °F 30.2 °F 87% 29.95 in - SE 10.4 mph - N/A   Clear
2:45 AM 33.8 °F 24.8 °F 30.2 °F 87% 29.95 in - SE 12.7 mph - N/A   Clear
3:45 AM 33.8 °F 23.9 °F 30.2 °F 87% 29.92 in - SE 15.0 mph - N/A   Clear
4:45 AM 33.8 °F 24.8 °F 30.2 °F 87% 29.89 in - SE 12.7 mph - N/A   Clear
5:15 AM 33.8 °F 25.3 °F 30.2 °F 87% 29.89 in - SE 11.5 mph - N/A   Clear
5:45 AM 33.8 °F 24.8 °F 30.2 °F 87% 29.89 in - SE 12.7 mph - N/A   Clear
6:15 AM 33.8 °F 24.3 °F 30.2 °F 87% 29.86 in - SE 13.8 mph - N/A   Clear
6:45 AM 33.8 °F 24.3 °F 30.2 °F 87% 29.86 in - SE 13.8 mph - N/A   Clear
7:00 AM 34 °F - 31 °F 82% 29.87 in 7 mi SE 13.4 mph - -   Partly Cloudy
7:15 AM 33.8 °F 23.9 °F 32.0 °F 93% 29.86 in - SE 15.0 mph - N/A   Clear
7:38 AM 35.6 °F 25.2 °F 32.0 °F 87% 29.86 in - SE 18.4 mph - N/A   Unknown
7:39 AM 35.6 °F 25.2 °F 32.0 °F 87% 29.86 in - SE 18.4 mph - N/A   Clear
7:45 AM 35.6 °F 24.8 °F 32.0 °F 87% 29.83 in - SE 19.6 mph - N/A   Clear
8:15 AM 35.6 °F 24.0 °F 32.0 °F 87% 29.83 in - SE 23.0 mph - N/A   Clear
8:45 AM 37.4 °F 26.6 °F 32.0 °F 81% 29.83 in - SE 21.9 mph - N/A   Clear
9:15 AM 37.4 °F 26.9 °F 33.8 °F 87% 29.83 in - SE 20.7 mph - N/A   Clear
9:45 AM 39.2 °F 29.0 °F 33.8 °F 81% 29.83 in - SE 21.9 mph - N/A   Clear
10:15 AM 41.0 °F 32.2 °F 35.6 °F 81% 29.80 in - SSE 18.4 mph - N/A   Clear
10:37 AM 41.0 °F 31.6 °F 35.6 °F 81% 29.83 in 6.2 mi SSE 20.7 mph - N/A Rain Light Rain
10:45 AM 41.0 °F 30.9 °F 35.6 °F 81% 29.80 in 6.2 mi SSE 24.2 mph 36.8 mph N/A Rain Light Rain Showers
11:15 AM 42.8 °F 33.1 °F 37.4 °F 81% 29.80 in 6.2 mi SSE 25.3 mph - N/A   Mostly Cloudy
11:45 AM 42.8 °F 33.5 °F 37.4 °F 81% 29.80 in - SSE 23.0 mph 34.5 mph N/A   Clear
12:15 PM 42.8 °F 35.1 °F 39.2 °F 87% 29.80 in 6.2 mi SSE 16.1 mph - N/A Rain Light Rain
12:45 PM 42.8 °F 34.0 °F 39.2 °F 87% 29.77 in 6.2 mi SSE 20.7 mph - N/A Rain Light Rain
1:00 PM 43 °F - 40 °F 83% 29.78 in 6 mi SSE 20.1 mph - - Rain Light Rain
1:15 PM 44.6 °F 36.9 °F 41.0 °F 87% 29.77 in 6.2 mi SSE 18.4 mph - N/A Rain Light Rain
1:45 PM 46.4 °F 38.7 °F 42.8 °F 87% 29.77 in 6.2 mi SSE 20.7 mph - N/A Rain Light Rain
2:15 PM 44.6 °F 37.4 °F 42.8 °F 93% 29.77 in 5.0 mi SSE 16.1 mph - N/A Rain Rain
2:45 PM 44.6 °F 36.6 °F 42.8 °F 93% 29.74 in 6.2 mi SE 19.6 mph - N/A   Mostly Cloudy
3:15 PM 46.4 °F 38.3 °F 42.8 °F 87% 29.71 in 6.2 mi SSE 23.0 mph - N/A   Mostly Cloudy
3:45 PM 46.4 °F 38.5 °F 42.8 °F 87% 29.71 in 6.2 mi SSE 21.9 mph - N/A   Mostly Cloudy
4:15 PM 46.4 °F 39.0 °F 42.8 °F 87% 29.71 in 6.2 mi SSE 19.6 mph - N/A   Mostly Cloudy
4:45 PM 46.4 °F 40.4 °F 42.8 °F 87% 29.74 in 6.2 mi SSW 13.8 mph - N/A Rain Light Rain Showers
5:15 PM 46.4 °F 41.1 °F 42.8 °F 87% 29.74 in 6.2 mi South 11.5 mph - N/A   Mostly Cloudy
5:45 PM 44.6 °F 38.4 °F 41.0 °F 87% 29.77 in 6.2 mi South 12.7 mph - N/A   Mostly Cloudy
6:15 PM 44.6 °F 38.4 °F 41.0 °F 87% 29.77 in 6.2 mi South 12.7 mph - N/A   Mostly Cloudy
6:45 PM 42.8 °F 36.2 °F 41.0 °F 93% 29.77 in 6.2 mi South 12.7 mph - N/A   Mostly Cloudy
7:00 PM 43 °F - 40 °F 86% 29.76 in 12 mi South 11.2 mph - -   Partly Cloudy
7:15 PM 42.8 °F 39.3 °F 41.0 °F 93% 29.77 in 6.2 mi SSW 5.8 mph - N/A Rain Light Rain
7:45 PM 42.8 °F 38.6 °F 41.0 °F 93% 29.77 in 5.0 mi South 6.9 mph - N/A Rain Rain
8:15 PM 41.0 °F 36.4 °F 41.0 °F 100% 29.77 in 6.2 mi SSE 6.9 mph - N/A Rain Light Rain
8:45 PM 41.0 °F 38.0 °F 41.0 °F 100% 29.77 in 6.2 mi SSE 4.6 mph - N/A Rain Light Rain
9:45 PM 41.0 °F 34.7 °F 39.2 °F 93% 29.74 in 6.2 mi SSE 10.4 mph - N/A Rain Light Rain
10:45 PM 41.0 °F 34.3 °F 39.2 °F 93% 29.74 in 5.0 mi SSE 11.5 mph - N/A Rain Light Rain
11:45 PM 39.2 °F 33.0 °F 39.2 °F 100% 29.74 in 5.0 mi SSE 9.2 mph - N/A Rain Light Rain